Torna al catalogo

PIAST-S1

AttivoScienzaSSO
NORAD 66749·PAYLOAD·🇵🇱 Poland

Lanciato Nov 28, 2025 da Vandenberg Space Force Base

Loading…

Prossimi Passaggi (prossime 24 ore)

TLE

AggiornatoSource: Space-Track

Epoca: Sep 14, 2026, 10:32 UTC

1 66749U 25276CM  26257.43919391  .00004026  00000-0  18431-3 0  9997
2 66749  97.4116 329.6749 0003105  46.3599 313.7894 15.21064306 43995

Traccia PIAST-S1 in tempo reale con AllMySat

Download on the App Store